Location: Bermeries
(50.2863°N, 3.7551°E)
Time: 02:37:30
(UTC+00:00)

Meteor 1-24 Rocket - Pass Details

Date: 23 May 2024
Orbit: 788 x 927 km, 81.3° (Epoch: 21 June)

Event Time Altitude Azimuth Distance (km) Brightness Sun altitude
Exits shadow 02:02:47 - 173° (S) 2,811 6.0 -12.5°
Reaches altitude 10° 02:03:17 10° 172° (S) 2,624 5.8 -12.5°
Maximum altitude 02:09:10 58° 96° (E) 1,077 4.4 -12.0°
Drops below altitude 10° 02:15:02 10° 19° (NNE) 2,618 7.6 -11.4°
Sets 02:17:31 0° 16° (NNE) 3,550 8.4 -11.2°
